Regional Weather Roundup
Issued by NWS State College, PA

Home | Current Version | Previous Version | Text Only | Print | Product List | Glossary Off
Versions: 1 2 3 4 5 6 7 8 9 10 11 12 13 14 15 16 17 18 19 20 21 22 23 24 25 26 27 28 29 30 31 32 33 34 35 36 37 38 39 40 41 42 43 44 45 46 47 48 49 50

000
ASUS41 KCTP 261503
RWRCTP

REGIONAL WEATHER ROUNDUP
NATIONAL WEATHER SERVICE STATE COLLEGE PA
1100 AM EDT MON JUN 26 2017

Note: "fair" indicates few or no clouds below 12,000 feet with no
significant weather and/or obstructions to visibility.

* = STATION THAT DOES NOT REPORT PRECIPITATION /E.G. RAIN...SNOW...ETC/
    THUNDER OR FOG.

PAZ002>004-007>009-013>016-020>023-029>032-261600-
WESTERN PENNSYLVANIA

CITY           SKY/WX    TMP DP  RH WIND       PRES   REMARKS
ERIE           CLOUDY    62  56  80 SW9       30.03S
MEADVILLE      MOSUNNY   65  52  62 VRB7      30.05F
FRANKLIN*      SUNNY     66  46  48 SW7       30.06F
NEW CASTLE     PTSUNNY   68  50  52 W12       30.07F
BEAVER COUNTY  SUNNY     68  50  52 SW7       30.07F
BUTLER*        SUNNY     70  50  49 W12G17    30.08S
PITTSBURGH INT MOSUNNY   69  49  48 W14       30.07F
PITTSBURGH     MOSUNNY   69  46  43 W9G18     30.08F
INDIANA*       SUNNY     66  50  55 W8G15     30.11F
LATROBE        MOSUNNY   68  48  49 W9        30.10F
WASHINGTON CO* MOSUNNY   70  48  46 SW5       30.11F
$$

PAZ004>006-010>012-017>019-024>028-033>037-041-042-045-046-049>053-261600-
CENTRAL PENNSYLVANIA

CITY           SKY/WX    TMP DP  RH WIND       PRES   REMARKS
BRADFORD       CLOUDY    61  49  64 W8        30.07S
DUBOIS         MOSUNNY   64  47  53 W13       30.07F
CLEARFIELD     PTSUNNY   68  50  52 SW9       30.08S
JOHNSTOWN      MOSUNNY   65  45  48 W10G20    30.11S
ALTOONA        SUNNY     69  48  47 W10       30.10S
STATE COLLEGE  SUNNY     70  52  52 SW9       30.08S
WILLIAMSPORT   NOT AVBL
SELINSGROVE    NOT AVBL
FT INDIANTOWN  MOSUNNY   73  47  38 W9        30.06S
CAPITAL CITY   NOT AVBL
HARRISBURG     MOSUNNY   76  49  38 VRB6      30.07S
YORK           NOT AVBL
$$

PAZ038>040-043-044-047-048-054-055-060>062-067>071-261600-
EASTERN PENNSYLVANIA

CITY           SKY/WX    TMP DP  RH WIND       PRES   REMARKS
SCRANTON       NOT AVBL
MOUNT POCONO   NOT AVBL
ALLENTOWN      NOT AVBL
QUAKERTOWN*    MOSUNNY   73  46  38 W7        30.07S
READING        NOT AVBL
LANCASTER      NOT AVBL
COATESVILLE    SUNNY     72  50  46 W9        30.09S
POTTSTOWN      NOT AVBL
BLUE BELL      SUNNY     72  50  46 NW7       30.07F
DOYLESTOWN     NOT AVBL
WILLOW GROVE   NOT AVBL
NORTH PHILA    NOT AVBL
PHILADELPHIA   NOT AVBL
$$




USA.gov is the U.S. government's official web portal to all federal, state and local government web resources and services.